EW1271 North Myrtle Beach SC US current weather conditions

sailwx.info

Wind from 018

Air temperature 27.8° C
Dewpoint 24.2° C

Last reported at 2020-Jul-06 05:00 UTC.
Time now 2020-Jul-06 05:41 UTC

Location: N 33°50' W 078°40'.
View on Google Maps.

See reports from other nearby stations

  
Tides and Currents Weather Stations Pressure Air Temp Water Temp Dewpoint Dewpoint Depression Visibility Wind Speed Wind Dir Waves Ship Positions
date/time (UTC)wind fromknots sea level pressurealtimeterstation pressurevisibilityair tempwater tempwave heightnotes
2020-Jul-06 05:00 018 27.8
2020-Jul-06 04:45 245 27.8
2020-Jul-06 04:30 115 27.8
2020-Jul-06 04:15 354 27.8
2020-Jul-06 04:00 026 27.8
2020-Jul-06 03:45 120 27.8
2020-Jul-06 03:31 088 27.8
2020-Jul-06 03:16 114 27.8
2020-Jul-06 03:01 084 27.8
2020-Jul-06 02:46 137 27.8
2020-Jul-06 02:31 221 27.8
2020-Jul-06 02:16 096 27.8
2020-Jul-06 02:02 238 27.8
2020-Jul-06 01:46 069 27.8
2020-Jul-06 01:30 078 27.8
2020-Jul-06 01:16 141 27.8
2020-Jul-06 01:00 105 27.8
2020-Jul-06 00:45 110 27.8
2020-Jul-06 00:31 100 27.8
2020-Jul-06 00:15 087 28.3
2020-Jul-06 00:01 109 28.3
2020-Jul-05 23:45 110 28.9
2020-Jul-05 23:30 123 28.9
2020-Jul-05 23:15 114 28.9
2020-Jul-05 23:00 120 28.9
2020-Jul-05 22:46 107 28.9
2020-Jul-05 22:30 140 29.4
2020-Jul-05 22:15 107 28.9
2020-Jul-05 22:01 045 29.4
2020-Jul-05 21:45 033 29.4
2020-Jul-05 21:30 117 29.4
2020-Jul-05 21:15 105 29.4
2020-Jul-05 21:00 127 29.4
2020-Jul-05 20:45 117 30.0
2020-Jul-05 20:30 163 30.0
2020-Jul-05 20:15 046 30.0
2020-Jul-05 20:00 311 30.0
2020-Jul-05 19:45 203 30.6
2020-Jul-05 19:32 149 30.0
2020-Jul-05 19:16 314 30.0
2020-Jul-05 19:01 105 30.0
2020-Jul-05 18:46 107 0 gusting 6 30.0
2020-Jul-05 18:31 098 1 gusting 10 30.0
2020-Jul-05 18:16 297 30.0
2020-Jul-05 18:01 103 30.0
2020-Jul-05 17:46 122 29.4
2020-Jul-05 17:31 117 28.9
2020-Jul-05 17:16 103 28.9
2020-Jul-05 17:01 120 0 gusting 5 28.9
2020-Jul-05 16:46 115 28.9
2020-Jul-05 16:32 099 1 gusting 6 29.4
2020-Jul-05 16:16 091 30.0
2020-Jul-05 16:01 120 29.4
2020-Jul-05 15:45 115 29.4
2020-Jul-05 15:31 097 0 gusting 5 29.4
2020-Jul-05 15:16 104 30.0
2020-Jul-05 15:02 117 30.6
2020-Jul-05 14:46 273 30.0
2020-Jul-05 14:31 277 30.0
2020-Jul-05 14:16 266 29.4
2020-Jul-05 14:01 255 29.4
2020-Jul-05 13:45 285 28.3
2020-Jul-05 13:30 277 27.8
2020-Jul-05 13:15 283 27.8
2020-Jul-05 13:00 276 27.2
2020-Jul-05 12:46 243 26.7
2020-Jul-05 12:30 264 26.1
2020-Jul-05 12:15 276 25.6
2020-Jul-05 12:00 267 25.0
2020-Jul-05 11:45 273 24.4
2020-Jul-05 11:30 204 24.4
2020-Jul-05 11:15 288 23.9
2020-Jul-05 11:00 287 23.9
2020-Jul-05 10:45
2020-Jul-05 10:30
2020-Jul-05 10:16
2020-Jul-05 10:02
2020-Jul-05 09:46
2020-Jul-05 09:30
2020-Jul-05 09:16
2020-Jul-05 09:01
2020-Jul-05 08:46
2020-Jul-05 08:30
2020-Jul-05 08:15
2020-Jul-05 08:01
2020-Jul-05 07:45
2020-Jul-05 07:30 277 25.0
2020-Jul-05 07:15 293 25.6
2020-Jul-05 07:00 333 25.6
2020-Jul-05 06:45 297 26.1
2020-Jul-05 06:30 248 26.1
2020-Jul-05 06:15 290 26.1
2020-Jul-05 06:00 250 26.1
2020-Jul-05 05:45 255 26.1
2020-Jul-05 05:30 256 26.1
2020-Jul-05 05:15 302 26.1
2020-Jul-05 05:02 294 26.1
2020-Jul-05 04:47 290 26.7
2020-Jul-05 04:31 287 27.2
2020-Jul-05 04:16 273 27.2
2020-Jul-05 04:03 276 27.8
2020-Jul-05 03:46 293 27.8
2020-Jul-05 03:32 300 27.8
2020-Jul-05 03:16 146 27.8
2020-Jul-05 03:01 271 28.3
2020-Jul-05 02:46 304 27.8
2020-Jul-05 02:31 222 28.3
2020-Jul-05 02:16 290 28.3
2020-Jul-05 02:02 264 28.3
2020-Jul-05 01:47 259 0 gusting 6 28.3
2020-Jul-05 01:31 255 28.3
2020-Jul-05 01:00 126 28.3
2020-Jul-05 00:46 131 28.9
2020-Jul-05 00:30 284 28.9
2020-Jul-05 00:17 153 28.9
2020-Jul-05 00:01 112 29.4
2020-Jul-04 23:46 277 30.0
2020-Jul-04 23:30 273 29.4
2020-Jul-04 23:16 074 30.0
2020-Jul-04 23:00 061 30.0
2020-Jul-04 22:47 249 30.6
2020-Jul-04 22:31 107 30.6
2020-Jul-04 22:15 274 31.1
2020-Jul-04 22:00 131 31.1
2020-Jul-04 21:45 103 31.1
2020-Jul-04 21:30 120 31.7
2020-Jul-04 21:16 349 0 gusting 7 31.7
2020-Jul-04 21:00 117 0 gusting 4 31.7
2020-Jul-04 20:46 086 31.7
2020-Jul-04 20:30 232 31.7
2020-Jul-04 20:16 097 31.1
2020-Jul-04 20:01 092 0 gusting 6 31.1
2020-Jul-04 19:45 243 31.7
2020-Jul-04 19:30 166 0 gusting 5 31.7
2020-Jul-04 19:15 104 0 gusting 4 31.7
2020-Jul-04 19:00 290 0 gusting 6 31.7
2020-Jul-04 18:45 267 31.1
2020-Jul-04 18:30 330 0 gusting 5 31.1
2020-Jul-04 18:15 088 31.1
2020-Jul-04 18:00 034 31.1
2020-Jul-04 17:45 143 31.1
2020-Jul-04 17:30 154 31.1
2020-Jul-04 17:15 200 31.7
2020-Jul-04 17:00 256 31.7
2020-Jul-04 16:45 109 31.1
2020-Jul-04 16:30 295 31.7
2020-Jul-04 16:15 155 31.7
2020-Jul-04 16:00 105 1 gusting 7 31.1
2020-Jul-04 15:46 250 32.2
2020-Jul-04 15:31 293 32.2
2020-Jul-04 15:16 270 31.7
2020-Jul-04 15:01 277 31.7
2020-Jul-04 14:46 269 30.6
2020-Jul-04 14:30 274 30.6
2020-Jul-04 14:15 271 30.0
2020-Jul-04 14:00 250 30.0
2020-Jul-04 13:45 277 28.9
2020-Jul-04 13:30 281 28.3
2020-Jul-04 13:00 277 27.8
2020-Jul-04 12:45 274 27.2
2020-Jul-04 12:31 280 26.7
2020-Jul-04 12:16 287 26.1
2020-Jul-04 12:01 305 25.0
2020-Jul-04 11:47 280 24.4
2020-Jul-04 11:32 273 24.4
2020-Jul-04 11:16 273 23.9
2020-Jul-04 11:03 281 23.9
2020-Jul-04 10:46 290 23.9
2020-Jul-04 10:30
2020-Jul-04 10:16
2020-Jul-04 10:02
2020-Jul-04 09:46
2020-Jul-04 09:31
2020-Jul-04 09:15
2020-Jul-04 09:00
2020-Jul-04 08:46
2020-Jul-04 08:30
2020-Jul-04 08:15
2020-Jul-04 08:00
2020-Jul-04 07:47
2020-Jul-04 07:32 277 23.9
2020-Jul-04 07:17 256 25.0
2020-Jul-04 07:01 276 25.0
2020-Jul-04 06:46 290 25.0
2020-Jul-04 06:31 293 25.0
2020-Jul-04 06:16 298 25.0
2020-Jul-04 06:02 287 25.0
2020-Jul-04 05:46 287 25.0
2020-Jul-04 05:31 286 25.6
2020-Jul-04 05:15 293 25.6
2020-Jul-04 05:01 290 25.6